Time,TemperatureF,DewpointF,PressureIn,WindDirection,WindDirectionDegrees,WindSpeedMPH,WindSpeedGustMPH,Humidity,HourlyPrecipIn,Conditions,Clouds,dailyrainin,SoftwareType,DateUTC
2013-08-06 00:13:00,74.6,54.0,29.69,SW,233,4.0,5.0,49,0.00,,,0.00,weatherlink.com 1.10,2013-08-06 06:13:00,
2013-08-06 00:26:00,74.7,54.0,29.69,SW,226,3.0,4.0,48,0.00,,,0.00,weatherlink.com 1.10,2013-08-06 06:26:00,
2013-08-06 00:41:00,74.6,54.0,29.69,SSE,163,0.0,2.0,48,0.00,,,0.00,weatherlink.com 1.10,2013-08-06 06:41:00,
2013-08-06 00:56:00,74.3,53.0,29.69,SSE,155,0.0,2.0,48,0.00,,,0.00,weatherlink.com 1.10,2013-08-06 06:56:00,
2013-08-06 01:11:00,74.6,54.0,29.68,WSW,245,1.0,4.0,49,0.00,,,0.00,weatherlink.com 1.10,2013-08-06 07:11:00,
2013-08-06 01:26:00,74.8,54.0,29.68,NE,53,3.0,4.0,49,0.00,,,0.00,weatherlink.com 1.10,2013-08-06 07:26:00,
2013-08-06 01:41:00,74.8,54.0,29.68,NE,34,0.0,4.0,49,0.00,,,0.00,weatherlink.com 1.10,2013-08-06 07:41:00,
2013-08-06 01:56:00,74.6,54.0,29.68,NNE,32,0.0,1.0,48,0.00,,,0.00,weatherlink.com 1.10,2013-08-06 07:56:00,
2013-08-06 02:11:00,74.3,53.0,29.68,ESE,119,1.0,3.0,48,0.00,,,0.00,weatherlink.com 1.10,2013-08-06 08:11:00,
2013-08-06 02:26:00,73.9,53.0,29.68,WSW,258,0.0,2.0,49,0.00,,,0.00,weatherlink.com 1.10,2013-08-06 08:26:00,
2013-08-06 02:41:00,73.5,53.0,29.67,NW,308,1.0,2.0,49,0.00,,,0.00,weatherlink.com 1.10,2013-08-06 08:41:00,
2013-08-06 02:56:00,73.1,53.0,29.67,North,352,0.0,3.0,50,0.00,,,0.00,weatherlink.com 1.10,2013-08-06 08:56:00,
2013-08-06 03:11:00,73.1,54.0,29.68,North,8,1.0,2.0,51,0.00,,,0.00,weatherlink.com 1.10,2013-08-06 09:11:00,
2013-08-06 03:26:00,73.1,53.0,29.67,WSW,250,1.0,7.0,49,0.00,,,0.00,weatherlink.com 1.10,2013-08-06 09:26:00,
2013-08-06 03:41:00,72.5,52.0,29.68,NNE,33,1.0,7.0,48,0.00,,,0.00,weatherlink.com 1.10,2013-08-06 09:41:00,
2013-08-06 03:57:00,72.0,52.0,29.67,WSW,252,0.0,4.0,49,0.00,,,0.00,weatherlink.com 1.10,2013-08-06 09:57:00,
2013-08-06 04:11:00,71.2,52.0,29.68,WNW,292,0.0,2.0,51,0.00,,,0.00,weatherlink.com 1.10,2013-08-06 10:11:00,
2013-08-06 04:26:00,70.7,52.0,29.68,NW,314,1.0,6.0,52,0.00,,,0.00,weatherlink.com 1.10,2013-08-06 10:26:00,
2013-08-06 04:41:00,69.9,52.0,29.68,North,355,1.0,5.0,54,0.00,,,0.00,weatherlink.com 1.10,2013-08-06 10:41:00,
2013-08-06 04:56:00,69.4,53.0,29.67,NNE,24,0.0,4.0,56,0.00,,,0.00,weatherlink.com 1.10,2013-08-06 10:56:00,
2013-08-06 05:12:00,69.0,53.0,29.67,WNW,286,1.0,3.0,57,0.00,,,0.00,weatherlink.com 1.10,2013-08-06 11:12:00,
2013-08-06 05:27:00,68.6,53.0,29.67,NW,316,0.0,1.0,58,0.00,,,0.00,weatherlink.com 1.10,2013-08-06 11:27:00,
2013-08-06 05:42:00,68.1,53.0,29.67,NNW,328,0.0,2.0,59,0.00,,,0.00,weatherlink.com 1.10,2013-08-06 11:42:00,
2013-08-06 05:57:00,68.0,53.0,29.67,North,359,0.0,2.0,60,0.00,,,0.00,weatherlink.com 1.10,2013-08-06 11:57:00,
2013-08-06 06:12:00,68.4,54.0,29.67,North,360,0.0,0.0,60,0.00,,,0.00,weatherlink.com 1.10,2013-08-06 12:12:00,
2013-08-06 06:27:00,69.1,54.0,29.67,North,360,1.0,1.0,59,0.00,,,0.00,weatherlink.com 1.10,2013-08-06 12:27:00,
2013-08-06 06:42:00,68.6,54.0,29.68,NNE,14,0.0,1.0,61,0.00,,,0.00,weatherlink.com 1.10,2013-08-06 12:42:00,
2013-08-06 06:57:00,68.1,54.0,29.68,NNE,15,0.0,1.0,60,0.00,,,0.00,weatherlink.com 1.10,2013-08-06 12:57:00,
2013-08-06 07:12:00,67.9,54.0,29.68,NNE,15,0.0,1.0,62,0.00,,,0.00,weatherlink.com 1.10,2013-08-06 13:12:00,
2013-08-06 07:27:00,68.2,55.0,29.68,NNE,14,0.0,1.0,62,0.00,,,0.00,weatherlink.com 1.10,2013-08-06 13:27:00,
2013-08-06 07:42:00,69.5,54.0,29.68,WSW,246,0.0,3.0,58,0.00,,,0.00,weatherlink.com 1.10,2013-08-06 13:42:00,
2013-08-06 07:57:00,71.4,55.0,29.69,SW,215,0.0,2.0,56,0.00,,,0.00,weatherlink.com 1.10,2013-08-06 13:57:00,
2013-08-06 08:12:00,73.8,54.0,29.70,SSW,211,0.0,1.0,51,0.00,,,0.00,weatherlink.com 1.10,2013-08-06 14:12:00,
2013-08-06 08:27:00,76.5,55.0,29.70,South,169,0.0,1.0,47,0.00,,,0.00,weatherlink.com 1.10,2013-08-06 14:27:00,
2013-08-06 08:42:00,77.8,56.0,29.70,North,349,0.0,1.0,47,0.00,,,0.00,weatherlink.com 1.10,2013-08-06 14:42:00,
2013-08-06 08:57:00,78.5,55.0,29.70,SSE,150,0.0,3.0,45,0.00,,,0.00,weatherlink.com 1.10,2013-08-06 14:57:00,
2013-08-06 09:12:00,79.7,55.0,29.69,ESE,102,1.0,1.0,43,0.00,,,0.00,weatherlink.com 1.10,2013-08-06 15:12:00,
2013-08-06 09:27:00,79.3,55.0,29.69,North,8,0.0,3.0,43,0.00,,,0.00,weatherlink.com 1.10,2013-08-06 15:27:00,
2013-08-06 09:42:00,81.4,56.0,29.69,SW,224,0.0,3.0,42,0.00,,,0.00,weatherlink.com 1.10,2013-08-06 15:42:00,
2013-08-06 09:57:00,80.7,54.0,29.70,SW,214,0.0,4.0,40,0.00,,,0.00,weatherlink.com 1.10,2013-08-06 15:57:00,
2013-08-06 10:12:00,81.6,54.0,29.70,SSE,153,1.0,6.0,39,0.00,,,0.00,weatherlink.com 1.10,2013-08-06 16:12:00,
2013-08-06 10:27:00,82.7,54.0,29.69,SW,215,1.0,4.0,37,0.00,,,0.00,weatherlink.com 1.10,2013-08-06 16:27:00,
2013-08-06 10:42:00,83.2,54.0,29.69,ESE,123,0.0,5.0,36,0.00,,,0.00,weatherlink.com 1.10,2013-08-06 16:42:00,
2013-08-06 10:57:00,83.4,54.0,29.69,South,184,0.0,4.0,36,0.00,,,0.00,weatherlink.com 1.10,2013-08-06 16:57:00,
2013-08-06 11:12:00,84.1,55.0,29.69,SE,126,0.0,4.0,37,0.00,,,0.00,weatherlink.com 1.10,2013-08-06 17:12:00,
2013-08-06 11:27:00,86.6,54.0,29.69,ESE,115,1.0,4.0,33,0.00,,,0.00,weatherlink.com 1.10,2013-08-06 17:27:00,
2013-08-06 11:42:00,88.1,55.0,29.68,SW,219,1.0,3.0,32,0.00,,,0.00,weatherlink.com 1.10,2013-08-06 17:42:00,
2013-08-06 11:57:00,86.5,55.0,29.67,South,173,4.0,6.0,34,0.00,,,0.00,weatherlink.com 1.10,2013-08-06 17:57:00,
2013-08-06 12:12:00,87.7,54.0,29.66,SE,135,1.0,6.0,31,0.00,,,0.00,weatherlink.com 1.10,2013-08-06 18:12:00,
2013-08-06 12:27:00,88.0,54.0,29.66,West,259,2.0,4.0,31,0.00,,,0.00,weatherlink.com 1.10,2013-08-06 18:27:00,
2013-08-06 12:42:00,88.6,54.0,29.65,SSE,168,2.0,6.0,31,0.00,,,0.00,weatherlink.com 1.10,2013-08-06 18:42:00,
2013-08-06 12:57:00,89.4,55.0,29.65,WNW,300,2.0,7.0,31,0.00,,,0.00,weatherlink.com 1.10,2013-08-06 18:57:00,
2013-08-06 13:12:00,90.5,55.0,29.64,WSW,245,1.0,7.0,30,0.00,,,0.00,weatherlink.com 1.10,2013-08-06 19:12:00,
2013-08-06 13:27:00,90.2,54.0,29.64,WSW,238,3.0,5.0,29,0.00,,,0.00,weatherlink.com 1.10,2013-08-06 19:27:00,
2013-08-06 13:42:00,90.6,54.0,29.63,SSW,212,3.0,6.0,29,0.00,,,0.00,weatherlink.com 1.10,2013-08-06 19:42:00,
2013-08-06 13:58:00,91.4,54.0,29.62,SSW,210,2.0,4.0,28,0.00,,,0.00,weatherlink.com 1.10,2013-08-06 19:58:00,
2013-08-06 14:13:00,92.5,55.0,29.61,West,269,1.0,5.0,28,0.00,,,0.00,weatherlink.com 1.10,2013-08-06 20:13:00,
2013-08-06 14:28:00,92.3,55.0,29.61,SSE,153,2.0,8.0,28,0.00,,,0.00,weatherlink.com 1.10,2013-08-06 20:28:00,
2013-08-06 14:43:00,90.5,54.0,29.60,South,191,2.0,8.0,29,0.00,,,0.00,weatherlink.com 1.10,2013-08-06 20:43:00,
2013-08-06 14:58:00,90.4,52.0,29.60,SSE,152,3.0,6.0,27,0.00,,,0.00,weatherlink.com 1.10,2013-08-06 20:58:00,
2013-08-06 15:13:00,89.2,54.0,29.59,SW,221,1.0,9.0,30,0.00,,,0.00,weatherlink.com 1.10,2013-08-06 21:13:00,
2013-08-06 15:28:00,90.0,53.0,29.59,SSW,205,3.0,5.0,28,0.00,,,0.00,weatherlink.com 1.10,2013-08-06 21:28:00,
2013-08-06 15:43:00,89.4,51.0,29.59,SW,229,4.0,7.0,27,0.00,,,0.00,weatherlink.com 1.10,2013-08-06 21:43:00,
2013-08-06 15:58:00,88.8,49.0,29.59,South,175,1.0,7.0,25,0.00,,,0.00,weatherlink.com 1.10,2013-08-06 21:58:00,
2013-08-06 16:13:00,88.6,50.0,29.59,NW,305,5.0,15.0,26,0.00,,,0.00,weatherlink.com 1.10,2013-08-06 22:13:00,
2013-08-06 16:28:00,87.5,50.0,29.60,West,270,6.0,7.0,27,0.00,,,0.00,weatherlink.com 1.10,2013-08-06 22:28:00,
2013-08-06 16:43:00,83.9,53.0,29.61,NW,311,2.0,8.0,34,0.00,,,0.00,weatherlink.com 1.10,2013-08-06 22:43:00,
2013-08-06 16:58:00,82.1,55.0,29.62,NNW,345,2.0,9.0,39,0.00,,,0.00,weatherlink.com 1.10,2013-08-06 22:58:00,
2013-08-06 17:13:00,80.9,54.0,29.62,WSW,253,2.0,9.0,40,0.00,,,0.00,weatherlink.com 1.10,2013-08-06 23:13:00,
2013-08-06 17:28:00,80.1,54.0,29.64,SE,132,1.0,6.0,41,0.00,,,0.00,weatherlink.com 1.10,2013-08-06 23:28:00,
2013-08-06 17:43:00,78.8,54.0,29.64,NNW,330,4.0,9.0,43,0.00,,,0.00,weatherlink.com 1.10,2013-08-06 23:43:00,
2013-08-06 17:58:00,77.7,55.0,29.64,NW,309,5.0,9.0,46,0.00,,,0.00,weatherlink.com 1.10,2013-08-06 23:58:00,
2013-08-06 18:13:00,76.6,58.0,29.63,North,351,1.0,8.0,52,0.00,,,0.00,weatherlink.com 1.10,2013-08-07 00:13:00,
2013-08-06 18:44:00,76.3,55.0,29.61,WSW,252,1.0,7.0,48,0.00,,,0.00,weatherlink.com 1.10,2013-08-07 00:44:00,
2013-08-06 18:58:00,76.2,54.0,29.61,North,360,3.0,5.0,46,0.00,,,0.00,weatherlink.com 1.10,2013-08-07 00:58:00,
2013-08-06 19:13:00,76.2,54.0,29.62,NNE,18,1.0,4.0,46,0.00,,,0.00,weatherlink.com 1.10,2013-08-07 01:13:00,
2013-08-06 19:28:00,75.8,54.0,29.62,NNW,338,0.0,4.0,47,0.00,,,0.00,weatherlink.com 1.10,2013-08-07 01:28:00,
2013-08-06 19:43:00,75.2,54.0,29.62,WNW,293,1.0,3.0,48,0.00,,,0.00,weatherlink.com 1.10,2013-08-07 01:43:00,
2013-08-06 19:58:00,74.8,54.0,29.62,North,354,1.0,2.0,49,0.00,,,0.00,weatherlink.com 1.10,2013-08-07 01:58:00,
2013-08-06 20:13:00,74.2,54.0,29.63,North,349,0.0,1.0,50,0.00,,,0.00,weatherlink.com 1.10,2013-08-07 02:13:00,
2013-08-06 20:28:00,74.4,55.0,29.64,North,350,0.0,1.0,51,0.00,,,0.00,weatherlink.com 1.10,2013-08-07 02:28:00,
2013-08-06 20:43:00,74.7,56.0,29.64,North,349,0.0,0.0,52,0.00,,,0.00,weatherlink.com 1.10,2013-08-07 02:43:00,
2013-08-06 20:58:00,73.2,55.0,29.65,North,349,0.0,0.0,53,0.00,,,0.00,weatherlink.com 1.10,2013-08-07 02:58:00,
2013-08-06 21:13:00,75.2,56.0,29.65,North,349,0.0,0.0,52,0.00,,,0.00,weatherlink.com 1.10,2013-08-07 03:13:00,
2013-08-06 21:28:00,73.5,56.0,29.66,North,349,0.0,0.0,55,0.00,,,0.00,weatherlink.com 1.10,2013-08-07 03:28:00,
2013-08-06 21:43:00,74.9,55.0,29.66,North,349,0.0,0.0,51,0.00,,,0.00,weatherlink.com 1.10,2013-08-07 03:43:00,
2013-08-06 21:58:00,72.0,55.0,29.66,North,349,0.0,0.0,56,0.00,,,0.00,weatherlink.com 1.10,2013-08-07 03:58:00,
2013-08-06 22:13:00,71.1,55.0,29.66,North,349,0.0,0.0,58,0.00,,,0.00,weatherlink.com 1.10,2013-08-07 04:13:00,
2013-08-06 22:29:00,70.6,55.0,29.66,North,349,0.0,0.0,59,0.00,,,0.00,weatherlink.com 1.10,2013-08-07 04:29:00,
2013-08-06 22:43:00,70.7,56.0,29.66,NW,316,1.0,2.0,60,0.00,,,0.00,weatherlink.com 1.10,2013-08-07 04:43:00,
2013-08-06 22:58:00,71.5,56.0,29.67,NNW,344,0.0,1.0,58,0.00,,,0.00,weatherlink.com 1.10,2013-08-07 04:58:00,
2013-08-06 23:13:00,70.8,55.0,29.68,South,180,0.0,1.0,58,0.00,,,0.00,weatherlink.com 1.10,2013-08-07 05:13:00,
2013-08-06 23:28:00,69.9,55.0,29.68,South,187,0.0,1.0,60,0.00,,,0.00,weatherlink.com 1.10,2013-08-07 05:28:00,
2013-08-06 23:43:00,69.6,55.0,29.68,West,278,0.0,2.0,60,0.00,,,0.00,weatherlink.com 1.10,2013-08-07 05:43:00,
2013-08-06 23:58:00,69.8,56.0,29.69,SSE,151,0.0,1.0,61,0.00,,,0.00,weatherlink.com 1.10,2013-08-07 05:58:00,